Arcata, CA

5:25 AM PDT on May 28, 2017 (GMT -0700)
Arcata

Weather History for KACV - December, 2012

Change the Weather History Date:

Wednesday, December 5, 2012

  Actual Average Record
Temperature  
Mean Temperature 52 °F -  
Max Temperature 55 °F 54 °F 66 °F (2014)
Min Temperature 46 °F 40 °F 25 °F (2013)
Degree Days  
Heating Degree Days 14    
Growing Degree Days 2 (Base 50)    
Moisture  
Dew Point 50 °F    
Average Humidity 90    
Maximum Humidity 100    
Minimum Humidity 69    
Precipitation  
Precipitation 0.23 in - - ()
Sea Level Pressure  
Sea Level Pressure 30.15 in    
Wind  
Wind Speed 4 mph (North)    
Max Wind Speed 12 mph    
Max Gust Speed -    
Visibility 7 miles    
Events Fog , Rain    
Averages and records for this station are not official NWS values.
T = Trace of Precipitation, MM = Missing Value Source: NWS Daily Summary

Daily Weather History Graph

Daily Weather History Graph

Search for Another Location

Airport or City:

Trip Planner

Search our weather history database for the weather conditions in past years. The results will help you decide how hot, cold, wet, or windy it might be!

Date:

Astronomy

Dec. 05, 2012 Rise Set
Actual Time 7:26 AM PST 4:48 PM PST
Civil Twilight 6:55 AM PST 5:18 PM PST
Nautical Twilight 6:21 AM PST 5:53 PM PST
Astronomical Twilight 5:48 AM PST 6:26 PM PST
Moon 11:46 PM PST (12/5) 11:50 AM PST (12/5)
Length of Visible Light 10h 23m
Length of Day
9h 21m
Waning Gibbous, 58% of the Moon is Illuminated
Dec 5
Waning Gibbous
Dec 6
Last Quarter
Dec 13
New
Dec 19
First Quarter
Dec 28
Full

Hourly Weather History & Observations

Time (PST) Temp. Dew Point Humidity Pressure Visibility Wind Dir Wind Speed Gust Speed Precip Events Conditions
12:24 AM 55.4 °F 55.4 °F 100% 30.05 in 2.5 mi NNE 3.5 mph - 0.02 in Rain Light Rain
12:44 AM 55.4 °F 55.4 °F 100% 30.06 in 1.2 mi North 3.5 mph - 0.03 in Rain Light Rain
12:53 AM 55.9 °F 55.9 °F 100% 30.07 in 1.2 mi NNW 3.5 mph - 0.05 in Rain Light Rain
1:02 AM 55.4 °F 55.4 °F 100% 30.06 in 1.2 mi North 3.5 mph - 0.01 in Rain Light Rain
1:19 AM 55.4 °F 55.4 °F 100% 30.06 in 2.0 mi North 3.5 mph - 0.02 in Rain Light Rain
1:30 AM 55.4 °F 55.4 °F 100% 30.07 in 1.2 mi North 3.5 mph - 0.03 in Rain Light Rain
1:50 AM 55.4 °F 55.4 °F 100% 30.07 in 1.5 mi Calm Calm - 0.09 in Rain Light Rain
1:53 AM 55.9 °F 55.9 °F 100% 30.09 in 2.5 mi Calm Calm - 0.09 in Rain Light Rain
2:00 AM 55.4 °F 55.4 °F 100% 30.08 in 6.0 mi North 3.5 mph - 0.00 in Rain Light Rain
2:05 AM 55.4 °F 55.4 °F 100% 30.08 in 2.5 mi NW 4.6 mph - 0.00 in Rain Light Rain
2:07 AM 55.4 °F 55.4 °F 100% 30.08 in 1.2 mi NNW 3.5 mph - 0.00 in Rain Light Rain
2:15 AM 55.4 °F 55.4 °F 100% 30.09 in 0.5 mi Calm Calm - 0.01 in Fog , Rain Light Rain
2:33 AM 55.4 °F 55.4 °F 100% 30.09 in 0.8 mi Calm Calm - 0.03 in Rain Light Rain
2:53 AM 55.0 °F 55.0 °F 100% 30.11 in 1.0 mi NW 6.9 mph - 0.08 in Rain Rain
3:11 AM 55.4 °F 55.4 °F 100% 30.10 in 2.0 mi NNW 6.9 mph - 0.01 in   Overcast
3:40 AM 53.6 °F 53.6 °F 100% 30.10 in 3.0 mi North 4.6 mph - 0.01 in   Overcast
3:53 AM 54.0 °F 54.0 °F 100% 30.11 in 3.0 mi Calm Calm - 0.01 in   Overcast
4:38 AM 53.6 °F 53.6 °F 100% 30.10 in 10.0 mi Calm Calm - N/A   Overcast
4:48 AM 53.6 °F 53.6 °F 100% 30.10 in 7.0 mi NNW 5.8 mph - N/A   Overcast
4:49 AM 53.1 °F 53.1 °F 100% 30.12 in 7.0 mi NNW 5.8 mph - N/A   Overcast
6:53 AM 53.1 °F 52.0 °F 96% 30.15 in 10.0 mi Calm Calm - N/A   Overcast
7:10 AM 53.6 °F 51.8 °F 94% 30.14 in 10.0 mi North 3.5 mph - N/A   Overcast
7:53 AM 52.0 °F 52.0 °F 100% 30.17 in 10.0 mi NNE 4.6 mph - N/A   Overcast
8:53 AM 54.0 °F 51.1 °F 90% 30.18 in 9.0 mi Calm Calm - N/A   Overcast
9:53 AM 54.0 °F 52.0 °F 93% 30.20 in 8.0 mi North 4.6 mph - N/A   Overcast
10:14 AM 55.4 °F 51.8 °F 88% 30.19 in 9.0 mi North 3.5 mph - N/A   Overcast
10:53 AM 55.0 °F 51.1 °F 86% 30.21 in 10.0 mi NW 5.8 mph - N/A   Overcast
11:53 AM 54.0 °F 51.1 °F 90% 30.20 in 10.0 mi NNW 10.4 mph - N/A   Overcast
12:53 PM 54.0 °F 48.0 °F 80% 30.20 in 10.0 mi North 8.1 mph - N/A   Overcast
1:04 PM 53.6 °F 46.4 °F 77% 30.18 in 10.0 mi North 8.1 mph - N/A   Overcast
1:53 PM 54.0 °F 46.9 °F 77% 30.19 in 10.0 mi NE 4.6 mph - N/A   Overcast
2:32 PM 53.6 °F 44.6 °F 72% 30.17 in 10.0 mi North 5.8 mph - N/A   Overcast
2:53 PM 53.1 °F 45.0 °F 74% 30.19 in 10.0 mi North 9.2 mph - N/A   Overcast
3:18 PM 51.8 °F 42.8 °F 71% 30.18 in 10.0 mi North 11.5 mph - N/A   Overcast
3:29 PM 51.8 °F 42.8 °F 71% 30.18 in 10.0 mi NNE 8.1 mph - N/A   Overcast
3:53 PM 52.0 °F 42.1 °F 69% 30.19 in 10.0 mi NE 6.9 mph - N/A   Overcast
4:53 PM 51.1 °F 42.1 °F 71% 30.21 in 10.0 mi North 6.9 mph - N/A   Overcast
5:53 PM 50.0 °F 42.1 °F 74% 30.22 in 10.0 mi NNE 3.5 mph - N/A   Overcast
6:53 PM 48.9 °F 43.0 °F 80% 30.23 in 10.0 mi Calm Calm - N/A   Overcast
7:53 PM 50.0 °F 43.0 °F 77% 30.24 in 10.0 mi Calm Calm - N/A   Overcast
8:12 PM 50.0 °F 42.8 °F 76% 30.22 in 10.0 mi NNE 5.8 mph - N/A   Overcast
8:53 PM 48.9 °F 43.0 °F 80% 30.25 in 10.0 mi ENE 5.8 mph - N/A   Overcast
9:11 PM 48.2 °F 44.6 °F 87% 30.22 in 10.0 mi ENE 5.8 mph - N/A   Overcast
9:53 PM 48.0 °F 43.0 °F 83% 30.25 in 10.0 mi ENE 3.5 mph - N/A   Overcast
10:53 PM 48.0 °F 43.0 °F 83% 30.25 in 10.0 mi Calm Calm - N/A   Overcast
11:53 PM 46.9 °F 44.1 °F 90% 30.26 in 10.0 mi Calm Calm - N/A   Overcast